Location: Unspecified
(50.7693°N, 0.0000°E)
Time: 17:58:19
(UTC+00:00)

Transit 2A - Pass Details

Date: 29 June 2019
Orbit: 594 x 965 km, 66.7° (Epoch: 17 July)

Event Time Altitude Azimuth Distance (km) Brightness Sun altitude
Rises 05:08:15 0° 319° (NW) 3,538 9.3 9.6°
Reaches altitude 10° 05:11:16 10° 331° (NNW) 2,540 8.7 10.1°
Maximum altitude 05:16:12 27° 29° (NNE) 1,537 8.5 10.8°
Drops below altitude 10° 05:20:45 10° 87° (E) 2,320 10.2 11.4°
Sets 05:23:22 0° 99° (E) 3,178 10.3 11.8°
